LiveATC.Net - Listen to live air traffic control over the Internet!


ICAO: SBFZ  IATA: FOR   Airport: Pinto Martins International Airport
City: Fortaleza
Country: Brazil   Continent: South America
SBFZ METAR Weather: SBFZ 182000Z 06011KT CAVOK 29/23 Q1011
SBFZ Flight Activity (FlightAware)

SBFZ Twr/App/Center
Feed Status: UP   Listeners: 7
Listen in your browser - HTML5 player (in browser, HTML5)
Listen in your browser - requires Flash (in browser, requires Flash)
Click here to listen with your own player (launches your MP3 player)
SBFZ Twr/App/Center Audio Archives
FacilityFrequency
ACC-RE (Fortaleza Sector)125.150
ACC-RE (Fortaleza Sector)126.350
ACC-RE (Fortaleza Sector)135.250
Fortaleza Approach133.000
Fortaleza Tower129.000

NOTICE

Unauthorized use prohibited. See LiveATC.net Terms of Service


Find LiveATC Audio Streams


Airport/ARTCC Code

Frequency Search
(e.g., 124.400, 128.75)
Site-wide search
 


Browse LiveATC Feeds
Top 50 LiveATC Feeds
Bad Weather Areas

LiveATC FAQ
Offer a LiveATC Feed
Contact LiveATC.net
Press Inquiries

LiveATC on iPhone
LiveATC on Android

Windows Phone
Windows 8/10

LiveATC Mobile
(Mobile browser)

ATC Audio Archives
Interesting Recordings

LiveATC Forums


Home Page
About LiveATC.net
Make a Donation
Terms of Use
Privacy Policy

Canadian Air Freqs

AIRMETs/SIGMETs

FAA Airport Status
Nat'l Airspace Status
Arrival Demand Charts


Server Software By:
Icecast.org
Liquidsoap